| time (UTC) | temp F | wind direction | speed knots | gust knots | rain 1hr in | rain 24hr in | rain mn in | humidity % | barometer mb |
| 20260504023656 | 68 | 234 | 2.6 | 2.6 | 0.00 | 0.00 | 0.00 | 65 | 1021.4 |
| 20260504023152 | 68 | 268 | 3.5 | 4.3 | 0.00 | 0.00 | 0.00 | 64 | 1021.3 |
| 20260504022649 | 68 | 184 | 1.7 | 1.7 | 0.00 | 0.00 | 0.00 | 65 | 1021.1 |
| 20260504022144 | 68 | 212 | 2.6 | 2.6 | 0.00 | 0.00 | 0.00 | 66 | 1021.2 |
| 20260504021642 | 68 | 231 | 0.9 | 1.7 | 0.00 | 0.00 | 0.00 | 66 | 1021.1 |
| 20260504021139 | 68 | 265 | 2.6 | 4.3 | 0.00 | 0.00 | 0.00 | 65 | 1021.1 |
| 20260504020636 | 68 | 194 | 1.7 | 1.7 | 0.00 | 0.00 | 0.00 | 64 | 1021.0 |
| 20260504020132 | 68 | 195 | 2.6 | 2.6 | 0.00 | 0.00 | 0.00 | 64 | 1021.1 |
| 20260504015629 | 68 | 254 | 3.5 | 5.2 | 0.00 | 0.00 | 0.00 | 64 | 1021.1 |
| 20260504015125 | 68 | 221 | 2.6 | 2.6 | 0.00 | 0.00 | 0.00 | 64 | 1020.9 |
| 20260504014621 | 68 | 306 | 2.6 | 4.3 | 0.00 | 0.00 | 0.00 | 65 | 1021.0 |
| 20260504014118 | 68 | 326 | 1.7 | 2.6 | 0.00 | 0.00 | 0.00 | 65 | 1021.0 |
| 20260504013616 | 68 | 254 | 2.6 | 2.6 | 0.00 | 0.00 | 0.00 | 64 | 1020.8 |
| 20260504013113 | 68 | 298 | 3.5 | 4.3 | 0.00 | 0.00 | 0.00 | 65 | 1020.5 |
| 20260504012610 | 68 | 173 | 0.9 | 0.9 | 0.00 | 0.00 | 0.00 | 67 | 1020.7 |
| 20260504012108 | 68 | 175 | 0.9 | 0.9 | 0.00 | 0.00 | 0.00 | 66 | 1020.6 |
| 20260504011604 | 68 | 197 | 1.7 | 1.7 | 0.00 | 0.00 | 0.00 | 64 | 1020.4 |
| 20260504011101 | 69 | 245 | 2.6 | 2.6 | 0.00 | 0.00 | 0.00 | 65 | 1020.3 |
| 20260504010556 | 69 | 180 | 0.9 | 0.9 | 0.00 | 0.00 | 0.00 | 65 | 1020.3 |
| 20260504010053 | 69 | 137 | 0.0 | 0.9 | 0.00 | 0.00 | 0.00 | 65 | 1020.4 |
| 20260504005549 | 69 | 146 | 1.7 | 1.7 | 0.00 | 0.00 | 0.00 | 64 | 1020.2 |
| 20260504005047 | 69 | 141 | 0.9 | 0.9 | 0.00 | 0.00 | 0.00 | 64 | 1020.4 |
| 20260504004544 | 69 | 145 | 0.9 | 0.9 | 0.00 | 0.00 | 0.00 | 64 | 1020.2 |
| 20260504004041 | 69 | 202 | 0.9 | 0.9 | 0.00 | 0.00 | 0.00 | 63 | 1020.1 |
| 20260504003537 | 70 | 58 | 0.9 | 0.9 | 0.00 | 0.00 | 0.00 | 60 | 1020.0 |
| 20260504003034 | 70 | 183 | 0.9 | 1.7 | 0.00 | 0.00 | 0.00 | 60 | 1020.2 |
| 20260504002531 | 71 | 151 | 0.9 | 0.9 | 0.00 | 0.00 | 0.00 | 59 | 1020.0 |
| 20260504002029 | 71 | 132 | 0.9 | 0.9 | 0.00 | 0.00 | 0.00 | 58 | 1019.9 |
| 20260504001526 | 73 | 112 | 0.0 | 0.0 | 0.00 | 0.00 | 0.00 | 51 | 1020.0 |
| 20260504001022 | 73 | 112 | 0.0 | 0.0 | 0.00 | 0.00 | 0.00 | 48 | 1019.9 |
| 20260504000520 | 75 | 112 | 0.0 | 0.9 | 0.00 | 0.00 | 0.00 | 46 | 1019.8 |
| 20260504000017 | 75 | 112 | 0.0 | 0.0 | 0.00 | 0.00 | 0.00 | 45 | 1019.9 |
| 20260503235515 | 76 | 113 | 0.0 | 0.9 | 0.00 | 0.00 | 0.00 | 45 | 1019.7 |
| 20260503235012 | 77 | 116 | 0.0 | 0.0 | 0.00 | 0.00 | 0.00 | 44 | 1019.5 |
| 20260503234509 | 77 | 116 | 0.0 | 0.0 | 0.00 | 0.00 | 0.00 | 42 | 1019.8 |
| 20260503234008 | 77 | 117 | 0.0 | 0.0 | 0.00 | 0.00 | 0.00 | 41 | 1020.0 |
| 20260503233503 | 78 | 124 | 0.0 | 0.0 | 0.00 | 0.00 | 0.00 | 41 | 1019.9 |
| 20260503233000 | 78 | 125 | 0.0 | 0.0 | 0.00 | 0.00 | 0.00 | 40 | 1019.9 |
| 20260503232457 | 77 | 126 | 0.9 | 0.9 | 0.00 | 0.00 | 0.00 | 39 | 1019.9 |
| 20260503231955 | 77 | 128 | 0.9 | 1.7 | 0.00 | 0.00 | 0.00 | 41 | 1020.3 |
| 20260503231452 | 78 | 132 | 0.0 | 0.9 | 0.00 | 0.00 | 0.00 | 42 | 1020.0 |
| 20260503230948 | 78 | 137 | 0.9 | 1.7 | 0.00 | 0.00 | 0.00 | 38 | 1019.9 |
| 20260503230445 | 78 | 112 | 0.0 | 0.0 | 0.00 | 0.00 | 0.00 | 39 | 1020.0 |
| 20260503225943 | 78 | 108 | 0.9 | 0.9 | 0.00 | 0.00 | 0.00 | 37 | 1019.8 |
| 20260503225439 | 79 | 306 | 1.7 | 1.7 | 0.00 | 0.00 | 0.00 | 38 | 1019.9 |
| 20260503224935 | 78 | 348 | 0.9 | 0.9 | 0.00 | 0.00 | 0.00 | 37 | 1020.1 |
| 20260503224432 | 79 | 327 | 2.6 | 2.6 | 0.00 | 0.00 | 0.00 | 38 | 1019.8 |
| 20260503223930 | 79 | 105 | 0.0 | 0.0 | 0.00 | 0.00 | 0.00 | 36 | 1019.9 |
| 20260503223427 | 78 | 111 | 0.0 | 0.9 | 0.00 | 0.00 | 0.00 | 36 | 1019.9 |
| 20260503222922 | 79 | 136 | 0.9 | 1.7 | 0.00 | 0.00 | 0.00 | 36 | 1019.9 |
| 20260503222421 | 79 | 153 | 0.9 | 0.9 | 0.00 | 0.00 | 0.00 | 38 | 1019.9 |
| 20260503221919 | 79 | 129 | 0.9 | 1.7 | 0.00 | 0.00 | 0.00 | 38 | 1020.0 |
| 20260503221417 | 80 | 150 | 0.9 | 0.9 | 0.00 | 0.00 | 0.00 | 37 | 1019.7 |
| 20260503220914 | 80 | 221 | 2.6 | 2.6 | 0.00 | 0.00 | 0.00 | 37 | 1020.0 |
| 20260503220410 | 78 | 108 | 0.0 | 0.9 | 0.00 | 0.00 | 0.00 | 37 | 1019.8 |
| 20260503215907 | 78 | 151 | 1.7 | 1.7 | 0.00 | 0.00 | 0.00 | 37 | 1019.8 |
| 20260503215404 | 79 | 150 | 0.9 | 0.9 | 0.00 | 0.00 | 0.00 | 37 | 1019.9 |
| 20260503214902 | 78 | 119 | 0.9 | 1.7 | 0.00 | 0.00 | 0.00 | 37 | 1020.1 |
| 20260503214359 | 79 | 293 | 1.7 | 1.7 | 0.00 | 0.00 | 0.00 | 37 | 1020.0 |
| 20260503213856 | 78 | 158 | 2.6 | 2.6 | 0.00 | 0.00 | 0.00 | 37 | 1019.9 |
| 20260503213354 | 79 | 104 | 0.9 | 0.9 | 0.00 | 0.00 | 0.00 | 36 | 1020.2 |
| 20260503212850 | 79 | 106 | 0.9 | 0.9 | 0.00 | 0.00 | 0.00 | 34 | 1020.1 |
| 20260503212349 | 79 | 144 | 1.7 | 1.7 | 0.00 | 0.00 | 0.00 | 38 | 1020.2 |
| 20260503211845 | 79 | 149 | 0.9 | 1.7 | 0.00 | 0.00 | 0.00 | 37 | 1020.1 |
| 20260503211342 | 78 | 144 | 0.9 | 1.7 | 0.00 | 0.00 | 0.00 | 37 | 1020.4 |
| 20260503210837 | 78 | 172 | 0.9 | 1.7 | 0.00 | 0.00 | 0.00 | 38 | 1020.6 |
| 20260503210335 | 78 | 155 | 1.7 | 1.7 | 0.00 | 0.00 | 0.00 | 41 | 1020.5 |
| 20260503205830 | 78 | 205 | 2.6 | 2.6 | 0.00 | 0.00 | 0.00 | 36 | 1020.5 |
| 20260503205326 | 79 | 140 | 1.7 | 1.7 | 0.00 | 0.00 | 0.00 | 39 | 1020.6 |
| 20260503204823 | 78 | 174 | 2.6 | 2.6 | 0.00 | 0.00 | 0.00 | 38 | 1020.8 |
| 20260503204321 | 78 | 282 | 2.6 | 2.6 | 0.00 | 0.00 | 0.00 | 35 | 1020.9 |
| 20260503203818 | 77 | 313 | 5.2 | 7.0 | 0.00 | 0.00 | 0.00 | 37 | 1021.0 |
| 20260503203315 | 78 | 16 | 2.6 | 2.6 | 0.00 | 0.00 | 0.00 | 35 | 1020.9 |
| 20260503202812 | 77 | 98 | 0.9 | 1.7 | 0.00 | 0.00 | 0.00 | 34 | 1021.0 |
| 20260503202310 | 77 | 136 | 0.0 | 0.9 | 0.00 | 0.00 | 0.00 | 38 | 1021.1 |
| 20260503201808 | 77 | 239 | 2.6 | 2.6 | 0.00 | 0.00 | 0.00 | 37 | 1021.3 |
| 20260503201305 | 77 | 260 | 2.6 | 2.6 | 0.00 | 0.00 | 0.00 | 37 | 1021.4 |
| 20260503200802 | 78 | 255 | 2.6 | 2.6 | 0.00 | 0.00 | 0.00 | 36 | 1021.4 |
| 20260503200257 | 77 | 85 | 2.6 | 2.6 | 0.00 | 0.00 | 0.00 | 35 | 1021.6 |
| 20260503195755 | 76 | 109 | 0.9 | 1.7 | 0.00 | 0.00 | 0.00 | 36 | 1021.4 |
| 20260503195251 | 77 | 199 | 1.7 | 1.7 | 0.00 | 0.00 | 0.00 | 34 | 1021.7 |
| 20260503194749 | 77 | 13 | 2.6 | 2.6 | 0.00 | 0.00 | 0.00 | 41 | 1021.6 |
| 20260503194245 | 76 | 267 | 2.6 | 4.3 | 0.00 | 0.00 | 0.00 | 37 | 1021.7 |
| 20260503193741 | 76 | 84 | 0.0 | 0.9 | 0.00 | 0.00 | 0.00 | 35 | 1022.1 |
| 20260503193237 | 77 | 198 | 1.7 | 1.7 | 0.00 | 0.00 | 0.00 | 37 | 1022.1 |
| 20260503192733 | 76 | 316 | 0.0 | 0.0 | 0.00 | 0.00 | 0.00 | 37 | 1021.9 |
| 20260503192228 | 76 | 44 | 0.9 | 1.7 | 0.00 | 0.00 | 0.00 | 35 | 1022.2 |
| 20260503191725 | 76 | 151 | 1.7 | 1.7 | 0.00 | 0.00 | 0.00 | 37 | 1022.3 |
| 20260503191222 | 76 | 334 | 0.9 | 1.7 | 0.00 | 0.00 | 0.00 | 38 | 1022.2 |
| 20260503190719 | 76 | 6 | 2.6 | 2.6 | 0.00 | 0.00 | 0.00 | 36 | 1022.5 |
| 20260503190216 | 76 | 129 | 3.5 | 4.3 | 0.00 | 0.00 | 0.00 | 36 | 1022.3 |
| 20260503185713 | 76 | 319 | 2.6 | 2.6 | 0.00 | 0.00 | 0.00 | 36 | 1022.8 |
| 20260503185208 | 75 | 147 | 0.9 | 0.9 | 0.00 | 0.00 | 0.00 | 39 | 1022.5 |
| 20260503184703 | 75 | 139 | 0.0 | 0.9 | 0.00 | 0.00 | 0.00 | 38 | 1022.8 |
| 20260503184200 | 75 | 117 | 1.7 | 1.7 | 0.00 | 0.00 | 0.00 | 36 | 1022.8 |
| 20260503183656 | 75 | 315 | 1.7 | 1.7 | 0.00 | 0.00 | 0.00 | 37 | 1022.9 |
| 20260503183154 | 75 | 214 | 2.6 | 2.6 | 0.00 | 0.00 | 0.00 | 38 | 1022.9 |
| 20260503182652 | 74 | 83 | 2.6 | 5.2 | 0.00 | 0.00 | 0.00 | 35 | 1023.2 |
| 20260503182150 | 74 | 261 | 2.6 | 5.2 | 0.00 | 0.00 | 0.00 | 36 | 1023.0 |
| 20260503181646 | 74 | 172 | 1.7 | 1.7 | 0.00 | 0.00 | 0.00 | 38 | 1023.3 |
| 20260503181143 | 74 | 163 | 1.7 | 1.7 | 0.00 | 0.00 | 0.00 | 37 | 1023.2 |
| 20260503180640 | 75 | 232 | 2.6 | 4.3 | 0.00 | 0.00 | 0.00 | 38 | 1023.4 |
| 20260503180138 | 75 | 106 | 1.7 | 1.7 | 0.00 | 0.00 | 0.00 | 40 | 1023.4 |
| 20260503175635 | 74 | 206 | 2.6 | 2.6 | 0.00 | 0.00 | 0.00 | 41 | 1023.2 |
| 20260503175132 | 74 | 265 | 5.2 | 7.0 | 0.00 | 0.00 | 0.00 | 39 | 1023.4 |
| 20260503174628 | 73 | 93 | 1.7 | 2.6 | 0.00 | 0.00 | 0.00 | 39 | 1023.5 |
| 20260503174126 | 73 | 128 | 0.9 | 0.9 | 0.00 | 0.00 | 0.00 | 38 | 1023.6 |
| 20260503173621 | 73 | 187 | 0.9 | 0.9 | 0.00 | 0.00 | 0.00 | 39 | 1023.6 |
| 20260503173117 | 73 | 290 | 2.6 | 4.3 | 0.00 | 0.00 | 0.00 | 39 | 1023.6 |
| 20260503172614 | 73 | 266 | 6.1 | 7.0 | 0.00 | 0.00 | 0.00 | 38 | 1023.5 |
| 20260503172112 | 73 | 219 | 3.5 | 4.3 | 0.00 | 0.00 | 0.00 | 39 | 1023.4 |
| 20260503171609 | 73 | 191 | 2.6 | 4.3 | 0.00 | 0.00 | 0.00 | 38 | 1023.4 |
| 20260503171106 | 73 | 187 | 1.7 | 1.7 | 0.00 | 0.00 | 0.00 | 38 | 1023.8 |
| 20260503170602 | 73 | 316 | 3.5 | 5.2 | 0.00 | 0.00 | 0.00 | 37 | 1023.8 |
| 20260503150954 | 70 | 177 | 0.9 | 1.7 | 0.00 | 0.00 | 0.00 | 56 | 1024.8 |
| 20260503150451 | 69 | 107 | 0.9 | 1.7 | 0.00 | 0.00 | 0.00 | 60 | 1024.6 |
| 20260503131344 | 58 | 113 | 0.0 | 0.0 | 0.00 | 0.00 | 0.00 | 78 | 1023.6 |
| 20260503130841 | 57 | 120 | 0.0 | 0.9 | 0.00 | 0.00 | 0.00 | 78 | 1023.7 |
| 20260503130339 | 57 | 136 | 0.9 | 1.7 | 0.00 | 0.00 | 0.00 | 77 | 1023.7 |
| 20260503110733 | 51 | 96 | 0.0 | 0.9 | 0.00 | 0.00 | 0.00 | 86 | 1022.9 |
| 20260503110230 | 51 | 101 | 1.7 | 1.7 | 0.00 | 0.00 | 0.00 | 86 | 1023.0 |
| 20260503100156 | 51 | 124 | 0.9 | 0.9 | 0.00 | 0.00 | 0.00 | 80 | 1022.3 |
| 20260503090115 | 51 | 125 | 1.7 | 1.7 | 0.00 | 0.00 | 0.00 | 80 | 1021.8 |
| 20260503081545 | 53 | 117 | 0.0 | 0.0 | 0.00 | 0.00 | 0.00 | 79 | 1021.8 |
| 20260503081042 | 53 | 117 | 0.0 | 0.0 | 0.00 | 0.00 | 0.00 | 77 | 1021.8 |
| 20260503080538 | 53 | 117 | 0.0 | 0.0 | 0.00 | 0.00 | 0.00 | 77 | 1021.5 |
| 20260503072512 | 53 | 117 | 0.0 | 0.0 | 0.00 | 0.00 | 0.00 | 79 | 1021.2 |
| 20260503072009 | 53 | 117 | 0.0 | 0.0 | 0.00 | 0.00 | 0.00 | 79 | 1021.4 |
| 20260503071506 | 53 | 117 | 0.0 | 0.0 | 0.00 | 0.00 | 0.00 | 79 | 1021.4 |
| 20260503071003 | 53 | 117 | 0.0 | 0.0 | 0.00 | 0.00 | 0.00 | 78 | 1021.1 |
| 20260503070459 | 54 | 117 | 0.0 | 0.0 | 0.00 | 0.00 | 0.00 | 78 | 1021.4 |
| 20260503054923 | 55 | 117 | 0.0 | 0.0 | 0.00 | 0.00 | 0.00 | 79 | 1021.0 |
| 20260503054419 | 55 | 117 | 0.0 | 0.0 | 0.00 | 0.00 | 0.00 | 78 | 1020.9 |
| 20260503053917 | 55 | 117 | 0.0 | 0.0 | 0.00 | 0.00 | 0.00 | 77 | 1021.2 |
| 20260503053415 | 55 | 117 | 0.0 | 0.9 | 0.00 | 0.00 | 0.00 | 77 | 1021.0 |
| 20260503052911 | 55 | 117 | 0.0 | 0.0 | 0.00 | 0.00 | 0.00 | 77 | 1020.9 |
| 20260503052408 | 56 | 117 | 0.0 | 0.9 | 0.00 | 0.00 | 0.00 | 77 | 1021.0 |
| 20260503051904 | 56 | 117 | 0.9 | 0.9 | 0.00 | 0.00 | 0.00 | 76 | 1020.9 |
| 20260503051400 | 56 | 117 | 0.0 | 0.0 | 0.00 | 0.00 | 0.00 | 75 | 1020.9 |
| 20260503050858 | 56 | 117 | 0.0 | 0.9 | 0.00 | 0.00 | 0.00 | 75 | 1021.1 |
| 20260503050354 | 57 | 117 | 0.0 | 0.0 | 0.00 | 0.00 | 0.00 | 74 | 1020.8 |
| 20260503045851 | 57 | 117 | 0.0 | 0.0 | 0.00 | 1.33 | 1.33 | 73 | 1021.1 |
| 20260503045349 | 57 | 117 | 0.0 | 0.0 | 0.00 | 1.33 | 1.33 | 74 | 1021.0 |
| 20260503044845 | 57 | 117 | 0.0 | 0.0 | 0.00 | 1.33 | 1.33 | 73 | 1020.7 |
| 20260503044342 | 57 | 117 | 0.0 | 0.0 | 0.00 | 1.33 | 1.33 | 72 | 1021.0 |
| 20260503043839 | 58 | 117 | 0.0 | 0.0 | 0.00 | 1.33 | 1.33 | 71 | 1020.7 |
| 20260503043336 | 58 | 117 | 0.0 | 0.0 | 0.00 | 1.33 | 1.33 | 71 | 1020.8 |
| 20260503042832 | 58 | 117 | 0.0 | 0.0 | 0.00 | 1.33 | 1.33 | 71 | 1020.7 |
| 20260503042329 | 58 | 118 | 0.0 | 0.9 | 0.00 | 1.33 | 1.33 | 71 | 1020.9 |
| 20260503041825 | 58 | 116 | 0.0 | 0.0 | 0.00 | 1.33 | 1.33 | 72 | 1020.8 |
| 20260503041323 | 58 | 116 | 0.0 | 0.0 | 0.00 | 1.33 | 1.33 | 70 | 1020.9 |
| 20260503040820 | 58 | 116 | 0.0 | 0.0 | 0.00 | 1.33 | 1.33 | 70 | 1020.7 |
| 20260503040318 | 59 | 116 | 0.0 | 0.0 | 0.00 | 1.33 | 1.33 | 70 | 1020.8 |
| 20260503035815 | 59 | 116 | 0.0 | 0.0 | 0.00 | 1.33 | 1.33 | 68 | 1020.6 |
| 20260503035312 | 59 | 116 | 0.0 | 0.0 | 0.00 | 1.33 | 1.33 | 69 | 1020.7 |
| 20260503034809 | 59 | 116 | 0.0 | 0.0 | 0.00 | 1.33 | 1.33 | 68 | 1020.6 |
| 20260503034306 | 59 | 118 | 0.0 | 0.0 | 0.00 | 1.33 | 1.33 | 69 | 1020.5 |
| 20260503033803 | 59 | 117 | 0.0 | 0.9 | 0.00 | 1.33 | 1.33 | 67 | 1020.6 |
| 20260503033301 | 59 | 118 | 0.9 | 0.9 | 0.00 | 1.33 | 1.33 | 69 | 1020.4 |
| 20260503032759 | 60 | 116 | 0.0 | 0.9 | 0.00 | 1.33 | 1.33 | 68 | 1020.4 |
| 20260503032257 | 60 | 117 | 0.0 | 0.0 | 0.00 | 1.33 | 1.33 | 68 | 1020.2 |
| 20260503031754 | 60 | 123 | 0.9 | 0.9 | 0.00 | 1.33 | 1.33 | 69 | 1020.1 |
| 20260503031252 | 60 | 117 | 0.0 | 0.0 | 0.00 | 1.33 | 1.33 | 68 | 1020.2 |
| 20260503030748 | 60 | 115 | 0.9 | 0.9 | 0.00 | 1.33 | 1.33 | 68 | 1020.2 |
| 20260503030245 | 60 | 116 | 0.0 | 0.0 | 0.00 | 1.33 | 1.33 | 68 | 1020.2 |
| 20260503025741 | 61 | 120 | 0.9 | 0.9 | 0.00 | 1.33 | 1.33 | 69 | 1020.0 |
| 20260503025239 | 61 | 120 | 0.9 | 0.9 | 0.00 | 1.33 | 1.33 | 67 | 1020.0 |
| 20260503024736 | 61 | 118 | 0.0 | 0.0 | 0.00 | 1.33 | 1.33 | 67 | 1020.2 |
| 20260503024233 | 61 | 118 | 0.0 | 0.0 | 0.00 | 1.33 | 1.33 | 66 | 1019.8 |